[[{"header":{"parameterUnit":"m.s-1","parameterCategory":2,"la1":30.2991,"la2":30.254,"lo1":-89.0895,"lo2":-89.0444,"dy":0.0017,"dx":0.0017,"nx":28,"ny":28,"refTime":"2024-03-01T09:00:00:Z","depth":"0","parameterNumber":2,"parameterNumberName":"U-component_of_CURRENTS"},"data":[0,0,0,0,0,0,0,0,0,0,0,0,0,0,0,0,0,0,0,0,0,0,0,0,0,0,0,0,0,0,0,0,0,0,0,0,0,0,0,0,0,0,0,0,0,0,0,0,0,0,0,0,0,0,0,0,0,0,0.3631,0.3631,0,0.3566,0.3565,0.3563,0.3506,0.3506,0.3506,0.3506,0.3344,0.334,0.3336,0,0,0,0,0,0,0,0,0,0,0,0,0,0.3601,0.3602,0.3631,0.3631,0.3631,0.3566,0.3564,0.3563,0.3506,0.3506,0.3506,0.3506,0.3346,0.3341,0.3336,0,0,0,0,0,0,0,0,0,0,0,0,0,0.3576,0.3602,0.3631,0.36,0.3597,0.3566,0.3564,0.3562,0.3506,0.3506,0.3506,0.3506,0.3347,0.3341,0.3335,0.3295,0,0,0.3315,0.3312,0,0,0,0,0,0,0,0,0.3578,0.3577,0.3604,0.3602,0.3599,0.355,0.3495,0.3471,0.3506,0.3533,0.3506,0.3506,0.3409,0.3398,0.3376,0.3288,0.3281,0.3315,0.3311,0.3308,0.3306,0,0,0,0,0,0,0,0.358,0.3579,0.3598,0.3605,0.3601,0.3554,0.355,0.349,0.3464,0.353,0.3528,0.3532,0.3406,0.3383,0.3372,0.3278,0.3315,0.3309,0.3305,0.3303,0.3273,0.3276,0,0,0,0,0,0,0.3608,0.3581,0.36,0.3597,0.3596,0.3555,0.3551,0.356,0.3467,0.3456,0.3532,0.353,0.3394,0.338,0.3366,0.3397,0.3308,0.3302,0.3298,0.327,0.3273,0.3277,0,0,0,0,0,0,0.3608,0.3611,0.3603,0.3592,0.3589,0.3557,0.3567,0.3559,0.3548,0.3471,0.3456,0.3532,0.3393,0.3375,0.3347,0.3387,0.3299,0.3293,0.3266,0.3271,0.3275,0.3406,0,0,0,0,0,0,0.3607,0.3611,0.3617,0.3595,0.3591,0.3604,0.3567,0.3558,0.3553,0.3549,0.3465,0.345,0.3392,0.3358,0.3341,0.3377,0.3288,0.3262,0.3268,0.3274,0.3398,0.3414,0.3429,0,0,0,0,0,0.3606,0.3625,0.3618,0.362,0.3605,0.3606,0.3599,0.357,0.3554,0.3557,0.3515,0.3453,0.3383,0.3354,0.3334,0.3369,0.3259,0.3266,0.3273,0.3391,0.3411,0.3428,0,0,0,0,0,0,0.3592,0.3621,0.3613,0.3632,0.3628,0.3599,0.3603,0.3582,0.3549,0.3543,0.3469,0.3451,0.345,0.3397,0.3367,0.3386,0.332,0.3323,0.3416,0.3434,0.345,0.3479,0.3283,0,0,0,0,0,0.3601,0.3629,0.3636,0.3643,0.3658,0.3631,0.3626,0.3608,0.3583,0.3568,0.3518,0.3478,0.3461,0.3437,0.3404,0.3391,0.3403,0.3412,0.3428,0.3441,0.3457,0.3539,0.3563,0.3299,0.3299,0.3299,0,0,0.3587,0.3611,0.3619,0.3643,0.364,0.365,0.3627,0.3632,0.3634,0.3553,0.3543,0.3521,0.3473,0.3478,0.3473,0.3435,0.3526,0.345,0.3461,0.347,0.3549,0.3574,0.3597,0.3304,0.3303,0.3302,0,0,0.358,0.3613,0.3635,0.3649,0.3668,0.3666,0.3678,0.3668,0.3669,0.3657,0.3627,0.3646,0.3574,0.3581,0.3567,0.3649,0.361,0.3634,0.3721,0.3801,0.3823,0.3843,0.3904,0.3928,0.3636,0.3636,0.3636,0,0.3556,0.3593,0.3633,0.3658,0.3671,0.3682,0.3693,0.3701,0.3677,0.3698,0.3671,0.3674,0.3634,0.3681,0.372,0.3684,0.3714,0.3647,0.3822,0.3841,0.3859,0.3917,0.3942,0.3643,0.3643,0.3642,0.3641,0,0.3566,0.3593,0.3615,0.3658,0.3677,0.3696,0.3728,0.3752,0.376,0.3767,0.3824,0.3807,0.3814,0.3821,0.3785,0.3901,0.3877,0.3837,0.3773,0.3894,0.3947,0.3971,0.3654,0.3651,0.3649,0.3647,0,0,0.3498,0.3603,0.3602,0.3636,0.3685,0.3703,0.375,0.3804,0.3855,0.3869,0.394,0.396,0.398,0.3972,0.3961,0.4035,0.4194,0.3996,0.3997,0.4055,0.437,0.4296,0.4313,0.4184,0.4189,0.4193,0.436,0,0.3483,0.3546,0.3594,0.3633,0.3674,0.3726,0.3771,0.3823,0.3878,0.3955,0.4011,0.4066,0.4029,0.4059,0.4133,0.4172,0.426,0.4152,0.4245,0.4248,0.4166,0.434,0.4145,0.4273,0.4383,0.4387,0.439,0,0.3453,0.3518,0.3568,0.3665,0.3687,0.3713,0.3823,0.3864,0.3989,0.4038,0.4128,0.4167,0.4287,0.4241,0.4399,0.4329,0.4372,0.4406,0.4412,0.4312,0.4218,0.4168,0.4311,0.4221,0.4425,0.4422,0.442,0,0.3391,0.3483,0.3537,0.3565,0.3678,0.3721,0.3779,0.389,0.395,0.4113,0.4181,0.431,0.4377,0.4475,0.4538,0.4486,0.4711,0.4636,0.4618,0.4612,0.4449,0.442,0.4511,0.4782,0.4781,0.4781,0.478,0,0.3353,0.339,0.3525,0.3555,0.3626,0.3709,0.3794,0.3878,0.401,0.4111,0.4224,0.4332,0.4443,0.4564,0.4614,0.47,0.4775,0.4683,0.4673,0.4489,0.4463,0.4373,0.4324,0.4787,0.4786,0.4785,0.4783,0,0.327,0.3351,0.3424,0.3562,0.3596,0.3651,0.3773,0.386,0.3984,0.4126,0.4187,0.437,0.4542,0.4645,0.4811,0.4779,0.4751,0.4888,0.4657,0.4617,0.4463,0.4427,0.4335,0.4209,0.4896,0.4895,0.4895,0,0.3236,0.3272,0.3409,0.3462,0.3527,0.3618,0.3692,0.3823,0.3918,0.4152,0.4228,0.4436,0.4563,0.4767,0.4802,0.4898,0.4762,0.474,0.4604,0.448,0.4435,0.4243,0.413,0.445,0.4446,0.4442,0.444,0,0.3193,0.3245,0.3322,0.3427,0.3512,0.3588,0.3704,0.3753,0.394,0.4056,0.4239,0.4361,0.4568,0.4581,0.4692,0.4715,0.4499,0.4672,0.4614,0.4174,0.3902,0.3764,0.4309,0.441,0.4413,0.4415,0.4417,0.4418,0.3164,0.3204,0.3313,0.3396,0.3485,0.3555,0.3568,0.3702,0.3799,0.3935,0.4142,0.4244,0.4364,0.449,0.4486,0.4344,0.433,0.4205,0.4202,0.4043,0.3825,0.4305,0.434,0.4342,0.4345,0.4346,0.4348,0,0.3143,0.32,0.3283,0.3371,0.3422,0.349,0.3576,0.3561,0.3617,0.3797,0.391,0.4004,0.4018,0.4075,0.4039,0.3908,0.369,0.3804,0.3504,0.3439,0.3947,0.383,0.3668,0.3668,0.3668,0.3668,0.3668,0.3668,0.3146,0.3201,0.3237,0.3287,0.3336,0.3335,0.3343,0.3326,0.3392,0.3416,0.3451,0.3558,0.3738,0.3813,0.3691,0.359,0.334,0.3164,0.3193,0.3579,0.3615,0.3649,0.353,0.3308,0.3308,0.2498,0.2493,0.2489]},{"header":{"parameterUnit":"m.s-1","parameterCategory":2,"la1":30.2991,"la2":30.254,"lo1":-89.0895,"lo2":-89.0444,"dy":0.0017,"dx":0.0017,"nx":28,"ny":28,"refTime":"2024-03-01T09:00:00:Z","depth":"0","parameterNumber":3,"parameterNumberName":"V-component_of_CURRENTS"},"data":[0,0,0,0,0,0,0,0,0,0,0,0,0,0,0,0,0,0,0,0,0,0,0,0,0,0,0,0,0,0,0,0,0,0,0,0,0,0,0,0,0,0,0,0,0,0,0,0,0,0,0,0,0,0,0,0,0,0,-0.005,-0.005,0,-0.0057,-0.0057,-0.0058,-0.0079,-0.0079,-0.0079,-0.008,-0.0127,-0.0128,-0.0129,0,0,0,0,0,0,0,0,0,0,0,0,0,-0.0064,-0.0064,-0.005,-0.005,-0.005,-0.0057,-0.0057,-0.0058,-0.0079,-0.0079,-0.008,-0.008,-0.0127,-0.0128,-0.0129,0,0,0,0,0,0,0,0,0,0,0,0,0,-0.0065,-0.0064,-0.005,-0.006,-0.006,-0.0057,-0.0057,-0.0058,-0.0079,-0.0079,-0.008,-0.008,-0.0126,-0.0128,-0.0129,-0.0131,0,0,-0.0134,-0.0135,0,0,0,0,0,0,0,0,-0.0065,-0.0065,-0.0059,-0.0059,-0.006,-0.0065,-0.0079,-0.0084,-0.0079,-0.0074,-0.008,-0.008,-0.0108,-0.0111,-0.0115,-0.0133,-0.0135,-0.0134,-0.0135,-0.0136,-0.0136,0,0,0,0,0,0,0,-0.0065,-0.0065,-0.0055,-0.0058,-0.0059,-0.0066,-0.0067,-0.008,-0.0092,-0.0075,-0.0076,-0.0073,-0.0109,-0.0113,-0.0116,-0.0136,-0.0134,-0.0136,-0.0136,-0.0137,-0.0162,-0.0162,0,0,0,0,0,0,-0.0058,-0.0065,-0.0055,-0.0055,-0.0061,-0.0065,-0.0066,-0.0065,-0.0091,-0.0094,-0.0072,-0.0073,-0.011,-0.0114,-0.0118,-0.0108,-0.0136,-0.0137,-0.0138,-0.0162,-0.0162,-0.0162,0,0,0,0,0,0,-0.0059,-0.0058,-0.0055,-0.0058,-0.0058,-0.0064,-0.0063,-0.0065,-0.0068,-0.0088,-0.0093,-0.0072,-0.0111,-0.0116,-0.0127,-0.0111,-0.0138,-0.0139,-0.0163,-0.0162,-0.0162,-0.0098,0,0,0,0,0,0,-0.0059,-0.0058,-0.0056,-0.0058,-0.0058,-0.0045,-0.0063,-0.0065,-0.0064,-0.0066,-0.009,-0.0094,-0.0111,-0.0125,-0.0129,-0.0114,-0.0141,-0.0163,-0.0163,-0.0162,-0.0101,-0.0096,-0.0092,0,0,0,0,0,-0.006,-0.0047,-0.0056,-0.0055,-0.0054,-0.0044,-0.0044,-0.0052,-0.0064,-0.0058,-0.0078,-0.0094,-0.0125,-0.0126,-0.013,-0.0115,-0.0163,-0.0163,-0.0162,-0.0103,-0.0097,-0.0092,0,0,0,0,0,0,-0.0045,-0.0048,-0.0058,-0.0046,-0.0044,-0.0046,-0.0037,-0.0048,-0.006,-0.0062,-0.009,-0.0096,-0.0101,-0.012,-0.012,-0.0123,-0.0147,-0.0147,-0.01,-0.0094,-0.009,-0.0052,-0.0142,0,0,0,0,0,-0.0042,-0.0036,-0.0041,-0.0028,-0.0026,-0.0034,-0.0032,-0.0036,-0.0045,-0.005,-0.0069,-0.0089,-0.0102,-0.0107,-0.0124,-0.0123,-0.0121,-0.0118,-0.0114,-0.0109,-0.0083,-0.0077,-0.0068,-0.016,-0.016,-0.016,0,0,-0.003,-0.0031,-0.0027,-0.0025,-0.0023,-0.0006,-0.0033,-0.0021,-0.0007,-0.0053,-0.0046,-0.0075,-0.01,-0.01,-0.0103,-0.0112,-0.0083,-0.0109,-0.0105,-0.008,-0.0075,-0.0066,-0.0058,-0.016,-0.016,-0.016,0,0,0.0008,-0.0005,0.0015,0.0016,0.0022,0.0018,0.0023,0.0017,0.0014,0.0017,-0.0015,-0.0031,-0.0052,-0.0063,-0.0072,-0.0052,-0.0062,-0.0065,-0.0004,0.0001,0.0009,0.0016,0.0034,0.0043,-0.0059,-0.0058,-0.0058,0,0.0025,0.0045,0.0025,0.0046,0.0059,0.0033,0.0064,0.0058,0.0048,0.0057,0.0029,0.0013,-0.0027,-0.0008,-0.0011,-0.0038,-0.0032,-0.0022,0.001,0.0017,0.0023,0.0039,0.0048,-0.0055,-0.0056,-0.0056,-0.0056,0,0.0078,0.0092,0.0108,0.0124,0.0131,0.0155,0.0146,0.0151,0.0138,0.0133,0.0143,0.0097,0.0095,0.0068,0.0031,0.0059,0.0049,0.0013,0.0002,0.0037,0.0051,0.0059,-0.0051,-0.0052,-0.0053,-0.0054,0,0,0.0136,0.0143,0.0152,0.0174,0.0175,0.0196,0.0217,0.0239,0.0274,0.0245,0.0299,0.024,0.0219,0.0207,0.016,0.0153,0.0179,0.0106,0.0105,0.0137,0.0209,0.0166,0.017,0.0149,0.0151,0.0152,0.0202,0,0.0192,0.0244,0.0231,0.0291,0.0321,0.0304,0.0335,0.0346,0.0346,0.0386,0.0348,0.037,0.0272,0.0281,0.0257,0.0202,0.0202,0.017,0.016,0.016,0.0128,0.0179,0.016,0.02,0.0209,0.0211,0.0212,0,0.0259,0.0285,0.0347,0.0387,0.0401,0.0432,0.0488,0.0511,0.054,0.0545,0.0553,0.0526,0.0517,0.0433,0.0379,0.0365,0.03,0.025,0.025,0.02,0.0133,0.0165,0.0214,0.0012,0.0223,0.0222,0.0222,0,0.0328,0.0372,0.0427,0.0439,0.0476,0.0513,0.0539,0.0568,0.0617,0.0661,0.0714,0.0681,0.0695,0.0611,0.0484,0.0442,0.0436,0.0363,0.0274,0.0271,0.025,0.0242,0.0117,0.0346,0.0346,0.0346,0.0346,0,0.0399,0.0448,0.0468,0.0504,0.0589,0.0589,0.0688,0.0703,0.0771,0.0871,0.081,0.0898,0.0738,0.0705,0.057,0.0458,0.0502,0.0314,0.0288,0.0269,0.0263,0.008,-0.0031,0.0348,0.0347,0.0347,0.0347,0,0.0475,0.048,0.0555,0.0605,0.0625,0.0693,0.0783,0.0862,0.0903,0.1043,0.1074,0.1073,0.1036,0.0874,0.0751,0.058,0.0356,0.0418,0.041,0.0381,0.0076,-0.0029,-0.014,-0.0238,0.0334,0.0333,0.0333,0,0.0518,0.0561,0.0632,0.0686,0.0716,0.0806,0.088,0.093,0.1025,0.1173,0.1265,0.1269,0.1324,0.1116,0.0814,0.0592,0.0386,0.0389,0.0286,0.0081,-0.0054,-0.0133,-0.0214,0.0291,0.029,0.0289,0.0288,0,0.0609,0.0632,0.0689,0.0792,0.0876,0.0975,0.1085,0.1178,0.128,0.1415,0.1589,0.1655,0.1461,0.1222,0.0865,0.0685,0.0226,0.0366,0.0161,-0.0083,-0.018,-0.0293,0.0238,0.0282,0.0283,0.0283,0.0284,0.0284,0.0679,0.0734,0.0805,0.0904,0.1005,0.1138,0.1244,0.139,0.1573,0.1801,0.184,0.1991,0.1586,0.1111,0.0803,0.0189,0.02,-0.0013,-0.0112,-0.0164,-0.0301,0.022,0.0215,0.0215,0.0216,0.0216,0.0216,0,0.0754,0.081,0.0911,0.1031,0.1155,0.1189,0.1379,0.1513,0.1755,0.1992,0.2166,0.2083,0.1586,0.1042,0.0216,-0.0221,-0.0381,-0.0453,-0.0579,-0.0632,-0.0155,-0.0204,-0.0309,-0.0309,-0.0309,-0.0308,-0.0308,-0.0308,0.0799,0.0892,0.0934,0.113,0.1226,0.1405,0.152,0.174,0.1942,0.224,0.2366,0.2431,0.2005,0.0555,-0.0451,-0.068,-0.097,-0.1035,-0.1175,-0.0879,-0.0846,-0.0815,-0.0889,-0.1135,-0.1136,-0.1617,-0.1622,-0.1626]}],[{"header":{"parameterUnit":"m.s-1","parameterCategory":2,"la1":30.2991,"la2":30.254,"lo1":-89.0895,"lo2":-89.0444,"dy":0.0017,"dx":0.0017,"nx":28,"ny":28,"refTime":"2024-03-01T09:00:00:Z","depth":"2","parameterNumber":2,"parameterNumberName":"U-component_of_CURRENTS"},"data":[0,0,0,0,0,0,0,0,0,0,0,0,0,0,0,0,0,0,0,0,0,0,0,0,0,0,0,0,0,0,0,0,0,0,0,0,0,0,0,0,0,0,0,0,0,0,0,0,0,0,0,0,0,0,0,0,0,0,0.2485,0.2486,0,0.2514,0.2514,0.2514,0.2509,0.2509,0.2509,0.2509,0.2521,0.2521,0.2521,0,0,0,0,0,0,0,0,0,0,0,0,0,0.2433,0.2433,0.2485,0.2486,0.2487,0.2514,0.2514,0.2514,0.2508,0.2509,0.2509,0.2509,0.2521,0.2521,0.2521,0,0,0,0,0,0,0,0,0,0,0,0,0,0.245,0.2433,0.2485,0.2494,0.2495,0.2514,0.2514,0.2513,0.2508,0.2509,0.2509,0.2509,0.2521,0.2521,0.2521,0.2517,0,0,0.2522,0.2522,0,0,0,0,0,0,0,0,0.2449,0.2451,0.2491,0.2493,0.2495,0.2515,0.25,0.2516,0.2508,0.2495,0.2509,0.2509,0.2522,0.2522,0.2516,0.2517,0.2518,0.2522,0.2522,0.2522,0.2522,0,0,0,0,0,0,0,0.2448,0.245,0.2489,0.2493,0.2495,0.2499,0.2501,0.2503,0.25,0.2496,0.2498,0.2513,0.2522,0.2516,0.2517,0.2518,0.2522,0.2522,0.2522,0.2522,0.2596,0.2598,0,0,0,0,0,0,0.2459,0.2449,0.2488,0.2491,0.2481,0.25,0.2502,0.2502,0.2501,0.2503,0.2513,0.2513,0.2516,0.2516,0.2517,0.2592,0.2522,0.2522,0.2522,0.2594,0.2597,0.2599,0,0,0,0,0,0,0.2458,0.2462,0.2487,0.2478,0.2482,0.2502,0.2501,0.2503,0.2522,0.2515,0.2516,0.2535,0.2516,0.2517,0.2545,0.259,0.2522,0.2523,0.2592,0.2595,0.2598,0.2691,0,0,0,0,0,0,0.2456,0.2461,0.2465,0.2478,0.2483,0.2517,0.2502,0.2503,0.2533,0.2534,0.2534,0.2534,0.2516,0.2545,0.2545,0.2589,0.2523,0.259,0.2593,0.2597,0.2685,0.2696,0.2706,0,0,0,0,0,0.2453,0.247,0.2464,0.247,0.2488,0.2519,0.2522,0.2531,0.2535,0.2548,0.2553,0.2535,0.2567,0.2547,0.2546,0.2591,0.2588,0.2592,0.2596,0.2681,0.2694,0.2705,0,0,0,0,0,0,0.246,0.2472,0.2466,0.2487,0.2508,0.2522,0.2541,0.2549,0.2562,0.2564,0.2554,0.2554,0.2592,0.2581,0.2558,0.2623,0.2577,0.2581,0.2641,0.2653,0.2663,0.2668,0.2523,0,0,0,0,0,0.2461,0.2466,0.2487,0.2503,0.2517,0.2531,0.2547,0.2554,0.257,0.2577,0.2577,0.2585,0.2604,0.2621,0.2619,0.2659,0.2671,0.2689,0.2699,0.2708,0.2712,0.2795,0.2813,0.2612,0.2612,0.2612,0,0,0.2459,0.2477,0.2474,0.2504,0.2517,0.2545,0.254,0.2573,0.26,0.2576,0.2609,0.2613,0.2619,0.2658,0.2676,0.266,0.2771,0.2713,0.2721,0.272,0.2801,0.2821,0.2839,0.2615,0.2614,0.2614,0,0,0.2469,0.2484,0.2488,0.2518,0.2555,0.2569,0.2588,0.2611,0.2626,0.266,0.2655,0.2696,0.2708,0.2734,0.2748,0.2818,0.2813,0.2817,0.2886,0.2967,0.2984,0.3,0.3036,0.3055,0.2834,0.2835,0.2835,0,0.2466,0.2484,0.2499,0.253,0.2563,0.2587,0.2616,0.264,0.2668,0.2693,0.2682,0.2746,0.275,0.2828,0.285,0.2844,0.2871,0.2839,0.2982,0.2998,0.3012,0.3046,0.3065,0.284,0.2839,0.2839,0.2838,0,0.2486,0.2507,0.2527,0.2563,0.2598,0.2637,0.2678,0.2707,0.2732,0.2759,0.283,0.2847,0.2894,0.2909,0.29,0.301,0.2988,0.2978,0.2953,0.3038,0.3068,0.3086,0.2847,0.2845,0.2844,0.2842,0,0,0.2449,0.2519,0.2527,0.2554,0.2626,0.2657,0.2713,0.2774,0.2826,0.2864,0.2941,0.299,0.3013,0.3031,0.3044,0.3115,0.3238,0.3096,0.3098,0.3135,0.3397,0.3309,0.3319,0.3262,0.3266,0.3269,0.3374,0,0.2455,0.2509,0.2553,0.2614,0.2642,0.2704,0.2764,0.2826,0.2875,0.2952,0.3013,0.3085,0.3061,0.3105,0.3175,0.3218,0.329,0.3208,0.3305,0.3307,0.3222,0.3339,0.3077,0.3144,0.3391,0.3394,0.3396,0,0.2452,0.2492,0.2547,0.264,0.2664,0.2714,0.2819,0.2879,0.2992,0.3046,0.3134,0.3172,0.3287,0.3256,0.3394,0.3345,0.3381,0.3409,0.3414,0.3311,0.3253,0.31,0.3167,0.3426,0.3424,0.3422,0.342,0,0.2409,0.2489,0.2536,0.2571,0.2679,0.2725,0.2793,0.2899,0.2971,0.3116,0.319,0.3306,0.3388,0.3461,0.3511,0.3472,0.3651,0.3605,0.3557,0.3549,0.3332,0.3299,0.3718,0.3718,0.3717,0.3717,0.3717,0,0.2404,0.2439,0.252,0.2556,0.2627,0.2712,0.2808,0.2897,0.3036,0.3136,0.3244,0.3333,0.345,0.3545,0.357,0.3624,0.3709,0.3591,0.3591,0.3354,0.3323,0.3563,0.3544,0.3721,0.372,0.3719,0.3719,0,0.2346,0.2407,0.2464,0.2574,0.2607,0.2663,0.2812,0.2878,0.3032,0.3167,0.3228,0.3396,0.3522,0.3611,0.3737,0.3699,0.3757,0.3753,0.3446,0.3407,0.3577,0.3562,0.3706,0.3704,0.3702,0.3701,0.37,0,0.231,0.2336,0.2453,0.249,0.2543,0.2631,0.269,0.2857,0.2933,0.3179,0.3237,0.342,0.35,0.3654,0.366,0.371,0.3769,0.3464,0.3341,0.3601,0.3586,0.3573,0.3559,0.3086,0.308,0.3076,0.3072,0,0.2258,0.2318,0.2381,0.2427,0.2492,0.257,0.267,0.2725,0.2924,0.3039,0.3184,0.3273,0.3444,0.3374,0.346,0.3438,0.343,0.3363,0.3764,0.3124,0.3025,0.3007,0.3013,0.3028,0.3032,0.3035,0.3038,0.304,0.2231,0.2246,0.2322,0.2371,0.2436,0.2487,0.25,0.2602,0.2699,0.2828,0.2991,0.3048,0.3128,0.3114,0.3051,0.3016,0.3236,0.3076,0.3088,0.3107,0.3011,0.2914,0.2876,0.2879,0.2882,0.2885,0.2887,0,0.2189,0.2218,0.2249,0.229,0.2298,0.2393,0.2465,0.2434,0.2463,0.261,0.2693,0.254,0.2539,0.2636,0.2528,0.2533,0.248,0.2419,0.2326,0.2374,0.2415,0.2279,0.1953,0.195,0.1946,0.1943,0,0,0.2168,0.217,0.2175,0.2152,0.2179,0.2153,0.2182,0.2156,0.2206,0.217,0.22,0.2405,0.2555,0.2208,0.2183,0.2048,0.2178,0.1966,0.2727,0.2666,0.2702,0.2822,0.2672,0,0,0,0,0]},{"header":{"parameterUnit":"m.s-1","parameterCategory":2,"la1":30.2991,"la2":30.254,"lo1":-89.0895,"lo2":-89.0444,"dy":0.0017,"dx":0.0017,"nx":28,"ny":28,"refTime":"2024-03-01T09:00:00:Z","depth":"2","parameterNumber":3,"parameterNumberName":"V-component_of_CURRENTS"},"data":[0,0,0,0,0,0,0,0,0,0,0,0,0,0,0,0,0,0,0,0,0,0,0,0,0,0,0,0,0,0,0,0,0,0,0,0,0,0,0,0,0,0,0,0,0,0,0,0,0,0,0,0,0,0,0,0,0,0,-0.0109,-0.0109,0,-0.0142,-0.0143,-0.0143,-0.0169,-0.0169,-0.0169,-0.0169,-0.0206,-0.0207,-0.0207,0,0,0,0,0,0,0,0,0,0,0,0,0,-0.0089,-0.0089,-0.0109,-0.0109,-0.0109,-0.0142,-0.0143,-0.0143,-0.0169,-0.0169,-0.0169,-0.0169,-0.0206,-0.0207,-0.0208,0,0,0,0,0,0,0,0,0,0,0,0,0,-0.0108,-0.0089,-0.0109,-0.0125,-0.0127,-0.0142,-0.0143,-0.0143,-0.0169,-0.0169,-0.0169,-0.0169,-0.0205,-0.0206,-0.0208,-0.0212,0,0,-0.0212,-0.0212,0,0,0,0,0,0,0,0,-0.0107,-0.0109,-0.0122,-0.0124,-0.0126,-0.015,-0.0149,-0.0166,-0.0169,-0.0154,-0.0169,-0.0169,-0.0187,-0.0189,-0.0197,-0.0214,-0.0216,-0.0212,-0.0213,-0.0213,-0.0214,0,0,0,0,0,0,0,-0.0106,-0.0108,-0.0123,-0.0123,-0.0125,-0.0138,-0.0141,-0.0153,-0.017,-0.0155,-0.0157,-0.0159,-0.0188,-0.0196,-0.0198,-0.0216,-0.0212,-0.0213,-0.0214,-0.0214,-0.0238,-0.0238,0,0,0,0,0,0,-0.0098,-0.0107,-0.0122,-0.0124,-0.0115,-0.0138,-0.0141,-0.0143,-0.017,-0.0174,-0.0158,-0.016,-0.0193,-0.0197,-0.02,-0.0195,-0.0213,-0.0214,-0.0215,-0.0239,-0.0238,-0.0238,0,0,0,0,0,0,-0.0097,-0.0099,-0.0121,-0.0115,-0.0119,-0.0138,-0.014,-0.0144,-0.0151,-0.0172,-0.0176,-0.0161,-0.0194,-0.0198,-0.0208,-0.0197,-0.0215,-0.0216,-0.0239,-0.0238,-0.0238,-0.0194,0,0,0,0,0,0,-0.0097,-0.0099,-0.0098,-0.0115,-0.0119,-0.0122,-0.014,-0.0144,-0.0151,-0.0153,-0.0175,-0.0179,-0.0194,-0.0206,-0.0209,-0.02,-0.0217,-0.0239,-0.0239,-0.0238,-0.0196,-0.0193,-0.019,0,0,0,0,0,-0.0096,-0.0088,-0.0097,-0.0099,-0.0117,-0.0122,-0.0125,-0.014,-0.0151,-0.0149,-0.0167,-0.0178,-0.0206,-0.0206,-0.021,-0.0201,-0.0239,-0.0239,-0.0238,-0.0197,-0.0193,-0.019,0,0,0,0,0,0,-0.0075,-0.009,-0.0101,-0.0098,-0.0107,-0.0125,-0.0124,-0.0137,-0.0151,-0.0152,-0.0177,-0.0181,-0.0187,-0.0202,-0.0201,-0.0209,-0.0224,-0.0225,-0.0192,-0.0188,-0.0185,-0.0159,-0.0218,0,0,0,0,0,-0.0071,-0.0071,-0.0087,-0.0084,-0.0087,-0.0107,-0.0112,-0.0121,-0.0134,-0.0141,-0.0159,-0.0177,-0.0189,-0.0194,-0.0208,-0.0211,-0.0223,-0.0209,-0.0206,-0.0203,-0.0185,-0.0198,-0.0194,-0.0237,-0.0237,-0.0237,0,0,-0.006,-0.007,-0.0068,-0.0079,-0.0089,-0.0082,-0.011,-0.011,-0.0102,-0.0142,-0.014,-0.0167,-0.0188,-0.0192,-0.0195,-0.0202,-0.02,-0.0202,-0.02,-0.0183,-0.0198,-0.0193,-0.0189,-0.0237,-0.0237,-0.0237,0,0,-0.0032,-0.0048,-0.0036,-0.0042,-0.0052,-0.0062,-0.006,-0.0078,-0.0084,-0.0089,-0.0115,-0.0134,-0.0153,-0.0167,-0.0176,-0.0164,-0.0184,-0.0172,-0.0132,-0.0146,-0.0142,-0.0139,-0.0159,-0.0158,-0.0169,-0.0169,-0.0169,0,-0.0017,-0.0007,-0.0032,-0.0022,-0.0017,-0.0049,-0.0028,-0.0039,-0.0058,-0.0056,-0.0079,-0.0108,-0.0138,-0.0133,-0.0136,-0.0155,-0.0167,-0.0144,-0.014,-0.0137,-0.0135,-0.0156,-0.0156,-0.0167,-0.0167,-0.0167,-0.0167,0,0.0019,0.0028,0.0036,0.0038,0.0039,0.0051,0.0035,0.0034,0.0018,0.0005,-0.0001,-0.0045,-0.0058,-0.0079,-0.0105,-0.01,-0.0117,-0.0136,-0.0146,-0.0128,-0.0152,-0.0152,-0.0164,-0.0164,-0.0165,-0.0166,0,0,0.006,0.0061,0.0066,0.0083,0.0074,0.0085,0.0096,0.0104,0.0125,0.0087,0.0111,0.006,0.0031,0.0019,-0.0022,-0.0042,-0.0055,-0.0078,-0.008,-0.009,-0.0086,-0.0119,-0.0123,-0.0072,-0.0071,-0.0071,-0.0114,0,0.01,0.0137,0.0124,0.0169,0.0192,0.0171,0.0193,0.0193,0.018,0.0192,0.0143,0.0145,0.0071,0.0069,0.0034,-0.0024,-0.005,-0.0041,-0.0108,-0.0109,-0.0135,-0.0122,-0.0096,-0.0133,-0.0114,-0.0114,-0.0114,0,0.0145,0.0166,0.0214,0.025,0.0259,0.028,0.0314,0.0329,0.0327,0.032,0.0299,0.026,0.0225,0.0162,0.0071,0.0082,0.0005,-0.005,-0.0053,-0.0094,-0.0142,-0.0147,-0.0134,-0.0114,-0.0114,-0.0114,-0.0114,0,0.0201,0.0234,0.0278,0.0287,0.0316,0.0342,0.0363,0.0372,0.0409,0.0407,0.0434,0.0368,0.0362,0.0257,0.0124,0.0103,0.0027,-0.0017,-0.0121,-0.0125,-0.0118,-0.0122,-0.0076,-0.0076,-0.0076,-0.0076,-0.0076,0,0.0253,0.0291,0.031,0.0338,0.0408,0.0407,0.0481,0.0487,0.0525,0.0594,0.0509,0.0545,0.0387,0.0317,0.0174,0.0033,0.0062,-0.0103,-0.0132,-0.0105,-0.0107,-0.0102,-0.0104,-0.0077,-0.0077,-0.0077,-0.0076,0,0.0306,0.0315,0.0375,0.0418,0.0437,0.0491,0.0568,0.0626,0.0644,0.0736,0.0749,0.0692,0.0599,0.0428,0.0266,0.0115,-0.0028,-0.0088,-0.0051,-0.0075,-0.0188,-0.0187,-0.0208,-0.021,-0.0211,-0.0212,-0.0213,0,0.0334,0.037,0.0435,0.0486,0.0508,0.0584,0.0649,0.0687,0.0761,0.0834,0.0895,0.083,0.08,0.0533,0.0267,0.0019,-0.0017,-0.0133,-0.0178,-0.0172,-0.0198,-0.0196,-0.0194,-0.0158,-0.0158,-0.0159,-0.0159,0,0.0398,0.0419,0.0469,0.0567,0.0641,0.0734,0.083,0.0908,0.0982,0.1056,0.1138,0.1117,0.0865,0.0612,0.0257,0.0083,-0.0098,-0.0148,-0.0129,-0.0133,-0.0129,-0.0154,-0.0153,-0.0161,-0.0161,-0.0161,-0.0161,-0.0161,0.0449,0.0495,0.0564,0.0658,0.0752,0.0881,0.098,0.1092,0.1226,0.1347,0.1306,0.1278,0.0978,0.0523,0.0213,-0.0115,-0.0105,-0.0229,-0.0226,-0.0223,-0.0214,-0.0213,-0.0259,-0.0259,-0.0259,-0.0259,-0.026,0,0.0512,0.0563,0.0655,0.0777,0.0896,0.0929,0.1103,0.1206,0.1378,0.1454,0.15,0.1218,0.0919,0.058,0.0094,-0.0207,-0.0226,-0.0301,-0.0255,-0.025,-0.0247,-0.0237,-0.029,-0.0291,-0.0292,-0.0293,0,0,0.0551,0.064,0.0681,0.0877,0.0972,0.1133,0.124,0.1397,0.1491,0.1558,0.1536,0.1443,0.1031,0.0673,0.027,-0.0005,-0.006,-0.0064,-0.0007,0.01,0.0108,-0.0172,-0.0149,0,0,0,0,0]}],[{"header":{"parameterUnit":"m.s-1","parameterCategory":2,"la1":30.2991,"la2":30.254,"lo1":-89.0895,"lo2":-89.0444,"dy":0.0017,"dx":0.0017,"nx":28,"ny":28,"refTime":"2024-03-01T09:00:00:Z","depth":"4","parameterNumber":2,"parameterNumberName":"U-component_of_CURRENTS"},"data":[0,0,0,0,0,0,0,0,0,0,0,0,0,0,0,0,0,0,0,0,0,0,0,0,0,0,0,0,0,0,0,0,0,0,0,0,0,0,0,0,0,0,0,0,0,0,0,0,0,0,0,0,0,0,0,0,0,0,0.1421,0.1422,0,0.1515,0.1516,0.1518,0.1592,0.1593,0.1594,0.1594,0.1698,0.1699,0.1701,0,0,0,0,0,0,0,0,0,0,0,0,0,0.1328,0.1329,0.1421,0.1422,0.1424,0.1515,0.1517,0.1518,0.1592,0.1593,0.1594,0.1595,0.1697,0.1699,0.1702,0,0,0,0,0,0,0,0,0,0,0,0,0,0.1389,0.1329,0.1421,0.1472,0.1478,0.1515,0.1517,0.1518,0.1592,0.1593,0.1594,0.1595,0.1696,0.1699,0.1702,0.1697,0,0,0.1711,0.1712,0,0,0,0,0,0,0,0,0.1386,0.1392,0.1463,0.1469,0.1475,0.1544,0.1522,0.1579,0.1591,0.1548,0.1594,0.1596,0.1646,0.1654,0.1668,0.1702,0.1706,0.1711,0.1713,0.1715,0.1715,0,0,0,0,0,0,0,0.1381,0.1389,0.1458,0.1464,0.1472,0.1498,0.1508,0.1533,0.1589,0.1552,0.1557,0.1569,0.165,0.1665,0.1671,0.1708,0.1711,0.1714,0.1716,0.1717,0.1838,0.184,0,0,0,0,0,0,0.1368,0.1385,0.1455,0.1461,0.1433,0.1499,0.151,0.152,0.1589,0.16,0.1567,0.1572,0.1659,0.1667,0.1675,0.1769,0.1715,0.1717,0.1719,0.1837,0.1839,0.184,0,0,0,0,0,0,0.1366,0.1374,0.1451,0.1425,0.1437,0.1499,0.151,0.1521,0.1572,0.1601,0.1613,0.1611,0.166,0.167,0.173,0.1769,0.1719,0.1721,0.1835,0.1838,0.1839,0.1895,0,0,0,0,0,0,0.1363,0.1372,0.1392,0.1424,0.1438,0.1497,0.1509,0.1522,0.1575,0.1583,0.1641,0.165,0.1662,0.1725,0.1733,0.1773,0.1724,0.1834,0.1836,0.1839,0.1891,0.1898,0.1905,0,0,0,0,0,0.1359,0.1375,0.1392,0.1401,0.1457,0.1499,0.1509,0.1556,0.1576,0.1605,0.1646,0.165,0.1747,0.1729,0.1737,0.1779,0.1832,0.1836,0.1839,0.1888,0.1897,0.1905,0,0,0,0,0,0,0.1349,0.1385,0.1404,0.1433,0.1474,0.1512,0.1544,0.1573,0.1627,0.1645,0.1669,0.1681,0.1748,0.1752,0.1731,0.1821,0.179,0.1795,0.1825,0.1833,0.184,0.1829,0.1726,0,0,0,0,0,0.1353,0.1377,0.1415,0.1444,0.1463,0.1509,0.1538,0.1572,0.1615,0.1643,0.1682,0.1722,0.176,0.1789,0.182,0.1868,0.1878,0.19,0.1907,0.1912,0.1909,0.197,0.1982,0.1851,0.1851,0.1851,0,0,0.1358,0.1382,0.1398,0.1444,0.1479,0.1513,0.1531,0.1585,0.1624,0.1643,0.1716,0.1751,0.1778,0.1837,0.1867,0.1852,0.1955,0.1916,0.1921,0.1915,0.1974,0.1987,0.1999,0.1853,0.1852,0.1852,0,0,0.1372,0.1402,0.1425,0.146,0.1518,0.1541,0.1563,0.162,0.1661,0.1725,0.1752,0.1808,0.1867,0.1897,0.1916,0.1976,0.1989,0.1995,0.2025,0.2085,0.2096,0.2106,0.2133,0.2145,0.1999,0.1999,0.1999,0,0.1385,0.141,0.1442,0.1475,0.1506,0.1554,0.159,0.1633,0.1708,0.1747,0.1758,0.1864,0.189,0.1958,0.1983,0.1992,0.2021,0.1993,0.2094,0.2104,0.2114,0.2139,0.2151,0.2002,0.2002,0.2001,0.2001,0,0.1405,0.1441,0.1459,0.151,0.1549,0.159,0.1643,0.1699,0.1749,0.1794,0.1886,0.1926,0.1992,0.201,0.2017,0.2101,0.2098,0.2097,0.2073,0.213,0.2153,0.2165,0.2006,0.2005,0.2004,0.2004,0,0,0.1397,0.146,0.1472,0.1501,0.1572,0.1604,0.1672,0.1743,0.1799,0.1875,0.1951,0.2017,0.2058,0.2081,0.2108,0.2151,0.224,0.2158,0.216,0.2183,0.2365,0.2227,0.2227,0.2273,0.2275,0.2277,0.2353,0,0.1409,0.1459,0.1494,0.1555,0.1581,0.1648,0.1702,0.1781,0.185,0.1937,0.2,0.2084,0.2081,0.2133,0.2179,0.2233,0.2276,0.2218,0.2306,0.2308,0.2178,0.2237,0.2285,0.2362,0.2365,0.2367,0.2368,0,0.1412,0.1446,0.1496,0.1572,0.1593,0.1641,0.1741,0.1805,0.1926,0.1986,0.2081,0.2143,0.2237,0.2223,0.2335,0.2309,0.2343,0.2364,0.2368,0.2225,0.2192,0.2294,0.239,0.2388,0.2386,0.2385,0.2384,0,0.1367,0.1447,0.1484,0.1512,0.1602,0.1653,0.1716,0.1828,0.1897,0.2039,0.2107,0.2218,0.2301,0.2361,0.2425,0.2403,0.2531,0.2505,0.2404,0.2394,0.2471,0.2459,0.2579,0.2579,0.2579,0.2578,0.2578,0,0.134,0.1379,0.1473,0.1493,0.1553,0.164,0.173,0.1804,0.1938,0.2019,0.2142,0.2216,0.2348,0.2439,0.2464,0.2472,0.2574,0.2412,0.241,0.2491,0.2481,0.2479,0.2466,0.2581,0.2581,0.258,0.258,0,0.1274,0.1336,0.1384,0.1488,0.1528,0.1578,0.1727,0.1787,0.1925,0.2039,0.2096,0.2261,0.2372,0.2468,0.2578,0.2514,0.2537,0.2516,0.2597,0.2598,0.2344,0.2334,0.2391,0.2387,0.2384,0.2381,0.2378,0,0.1238,0.1254,0.1363,0.1393,0.1443,0.1543,0.1603,0.1759,0.1824,0.2039,0.2072,0.2255,0.2346,0.2384,0.2489,0.2531,0.2506,0.2488,0.2398,0.2335,0.2329,0.2324,0.2318,0.2373,0.2372,0.2371,0.237,0,0.1162,0.1212,0.1253,0.1312,0.1377,0.1436,0.1541,0.1585,0.1766,0.1917,0.2014,0.2097,0.2219,0.2301,0.2367,0.2385,0.2477,0.245,0.2456,0.2371,0.2313,0.2309,0.2308,0.2358,0.236,0.2361,0.2362,0,0.1114,0.1118,0.1177,0.122,0.1285,0.1299,0.1377,0.1469,0.1563,0.1805,0.1839,0.2028,0.2197,0.2228,0.2282,0.2301,0.2255,0.216,0.218,0.2195,0.2097,0.1992,0.1942,0,0,0,0,0,0.1058,0.1052,0.1079,0.1108,0.1162,0.1202,0.1315,0.1402,0.1595,0.1614,0.1725,0.1833,0.1941,0.2039,0.2021,0.2185,0.2252,0.2151,0.2149,0.2291,0.2305,0.2209,0,0,0,0,0,0,0.102,0.1042,0.1043,0.1003,0.1009,0.1051,0.1121,0.1246,0.1272,0.1481,0.1554,0.1712,0.1845,0.1939,0.1984,0.2014,0.1971,0.2275,0.227,0.2283,0.2296,0.2307,0.2213,0,0,0,0,0]},{"header":{"parameterUnit":"m.s-1","parameterCategory":2,"la1":30.2991,"la2":30.254,"lo1":-89.0895,"lo2":-89.0444,"dy":0.0017,"dx":0.0017,"nx":28,"ny":28,"refTime":"2024-03-01T09:00:00:Z","depth":"4","parameterNumber":3,"parameterNumberName":"V-component_of_CURRENTS"},"data":[0,0,0,0,0,0,0,0,0,0,0,0,0,0,0,0,0,0,0,0,0,0,0,0,0,0,0,0,0,0,0,0,0,0,0,0,0,0,0,0,0,0,0,0,0,0,0,0,0,0,0,0,0,0,0,0,0,0,-0.0007,-0.0007,0,-0.0041,-0.0042,-0.0043,-0.007,-0.007,-0.007,-0.007,-0.0104,-0.0104,-0.0105,0,0,0,0,0,0,0,0,0,0,0,0,0,0.0012,0.0012,-0.0007,-0.0007,-0.0007,-0.0041,-0.0042,-0.0043,-0.007,-0.007,-0.007,-0.007,-0.0103,-0.0104,-0.0105,0,0,0,0,0,0,0,0,0,0,0,0,0,-0.0008,0.0012,-0.0007,-0.0024,-0.0026,-0.0041,-0.0042,-0.0043,-0.007,-0.007,-0.007,-0.007,-0.0103,-0.0104,-0.0105,-0.0109,0,0,-0.0109,-0.011,0,0,0,0,0,0,0,0,-0.0007,-0.0009,-0.0021,-0.0023,-0.0025,-0.005,-0.0047,-0.0064,-0.007,-0.0055,-0.007,-0.007,-0.0084,-0.0087,-0.0096,-0.0111,-0.0112,-0.0109,-0.011,-0.011,-0.0111,0,0,0,0,0,0,0,-0.0005,-0.0008,-0.0022,-0.0021,-0.0023,-0.0038,-0.0041,-0.0051,-0.007,-0.0056,-0.0058,-0.0059,-0.0086,-0.0095,-0.0097,-0.0113,-0.0109,-0.011,-0.0111,-0.0111,-0.0133,-0.0133,0,0,0,0,0,0,0.0004,-0.0006,-0.0021,-0.0023,-0.0014,-0.0037,-0.0041,-0.0043,-0.007,-0.0073,-0.0059,-0.006,-0.0092,-0.0095,-0.0098,-0.0095,-0.011,-0.0111,-0.0112,-0.0134,-0.0133,-0.0133,0,0,0,0,0,0,0.0004,0.0003,-0.002,-0.0014,-0.0018,-0.0037,-0.004,-0.0044,-0.0053,-0.0071,-0.0075,-0.0063,-0.0093,-0.0096,-0.0106,-0.0097,-0.0112,-0.0113,-0.0134,-0.0134,-0.0133,-0.0094,0,0,0,0,0,0,0.0005,0.0003,0.0003,-0.0013,-0.0018,-0.0025,-0.0039,-0.0044,-0.0052,-0.0054,-0.0076,-0.008,-0.0093,-0.0104,-0.0107,-0.0098,-0.0114,-0.0134,-0.0134,-0.0133,-0.0096,-0.0093,-0.009,0,0,0,0,0,0.0006,0.0012,0.0003,0.0001,-0.0017,-0.0025,-0.0028,-0.0044,-0.0052,-0.0054,-0.0069,-0.0079,-0.0104,-0.0104,-0.0108,-0.01,-0.0134,-0.0134,-0.0133,-0.0097,-0.0093,-0.009,0,0,0,0,0,0,0.0023,0.0009,-0.0,0.0001,-0.001,-0.0029,-0.003,-0.0042,-0.0056,-0.0057,-0.0078,-0.0082,-0.0087,-0.01,-0.01,-0.0107,-0.0121,-0.0121,-0.0092,-0.0089,-0.0086,-0.0071,-0.0115,0,0,0,0,0,0.0026,0.0026,0.001,0.0012,0.0007,-0.0012,-0.0018,-0.0028,-0.0041,-0.0048,-0.0065,-0.008,-0.0089,-0.0094,-0.0107,-0.0109,-0.0131,-0.0107,-0.0104,-0.0102,-0.0093,-0.0122,-0.0121,-0.0132,-0.0132,-0.0132,0,0,0.0034,0.0027,0.0027,0.0015,0.0004,0.0008,-0.0017,-0.002,-0.0016,-0.0048,-0.005,-0.0071,-0.0089,-0.0092,-0.0095,-0.0101,-0.0112,-0.0102,-0.0099,-0.0091,-0.0122,-0.012,-0.0119,-0.0132,-0.0132,-0.0132,0,0,0.0055,0.0043,0.0049,0.0042,0.0032,0.0023,0.0024,0.0005,-0.0003,-0.0008,-0.003,-0.0045,-0.0061,-0.0073,-0.0079,-0.007,-0.0098,-0.0075,-0.0046,-0.0075,-0.0074,-0.0074,-0.0106,-0.0109,-0.0072,-0.0072,-0.0072,0,0.0065,0.0072,0.0051,0.0056,0.006,0.0034,0.0047,0.0036,0.0017,0.0015,-0.0001,-0.0029,-0.0049,-0.0048,-0.0048,-0.0062,-0.0086,-0.0056,-0.0071,-0.0071,-0.0071,-0.0104,-0.0108,-0.007,-0.007,-0.007,-0.0071,0,0.0088,0.0096,0.0101,0.0102,0.01,0.0108,0.0094,0.0091,0.0078,0.0064,0.0054,0.0021,0.0006,-0.0006,-0.0024,-0.0031,-0.0051,-0.0065,-0.0077,-0.0067,-0.0104,-0.0108,-0.0067,-0.0068,-0.0069,-0.0069,0,0,0.011,0.0117,0.012,0.0134,0.0127,0.0133,0.0142,0.0143,0.0154,0.0123,0.0132,0.0098,0.0071,0.0061,0.0031,0.0005,-0.0026,-0.0028,-0.003,-0.0056,-0.0095,-0.0101,-0.0107,-0.0045,-0.0045,-0.0046,-0.0122,0,0.0137,0.0167,0.016,0.0195,0.0212,0.0197,0.0214,0.021,0.0194,0.0193,0.0154,0.0149,0.01,0.0095,0.0059,-0.0002,-0.0034,-0.0004,-0.0103,-0.0106,-0.0109,-0.011,-0.0047,-0.0125,-0.0126,-0.0127,-0.0128,0,0.0162,0.0184,0.0221,0.0254,0.0261,0.0277,0.0299,0.031,0.0297,0.0286,0.026,0.0223,0.0184,0.0143,0.004,0.006,-0.0012,-0.0065,-0.0069,-0.0088,-0.012,-0.0137,-0.0136,-0.0135,-0.0135,-0.0134,-0.0134,0,0.0195,0.0228,0.0265,0.0273,0.0301,0.032,0.0339,0.0338,0.0361,0.0344,0.0351,0.0286,0.0266,0.0168,0.0046,0.0042,-0.0071,-0.009,-0.0164,-0.0166,-0.0155,-0.0155,-0.0161,-0.0161,-0.0161,-0.0161,-0.016,0,0.0227,0.0258,0.0286,0.0307,0.0364,0.0366,0.042,0.0422,0.044,0.0475,0.0404,0.0406,0.0271,0.0185,0.0068,-0.0063,-0.0061,-0.0157,-0.0183,-0.0139,-0.0135,-0.0159,-0.0158,-0.0163,-0.0163,-0.0162,-0.0162,0,0.0251,0.0268,0.0319,0.0362,0.038,0.0422,0.0487,0.0526,0.0529,0.0571,0.0573,0.0497,0.0382,0.0235,0.0074,-0.0025,-0.0154,-0.0202,-0.0144,-0.0166,-0.0236,-0.0232,-0.0286,-0.0287,-0.0287,-0.0288,-0.0288,0,0.0263,0.0292,0.0358,0.0402,0.0424,0.0489,0.0541,0.0571,0.0614,0.0626,0.0649,0.0556,0.0485,0.0258,0.0088,-0.0136,-0.017,-0.0242,-0.0239,-0.0227,-0.0248,-0.0242,-0.0238,-0.0289,-0.029,-0.029,-0.029,0,0.0296,0.0319,0.0362,0.0449,0.0512,0.0591,0.0661,0.0699,0.0738,0.0739,0.0721,0.06,0.047,0.0274,0.0096,-0.0067,-0.0197,-0.0249,-0.0249,-0.0247,-0.0232,-0.0251,-0.0245,-0.0292,-0.0292,-0.0292,-0.0291,0,0.032,0.0356,0.0418,0.0494,0.0581,0.0668,0.0703,0.0754,0.0795,0.0799,0.0788,0.0643,0.0555,0.0309,0.0145,-0.0017,-0.006,-0.0114,-0.0121,-0.0121,-0.0056,-0.0012,-0.0022,0,0,0,0,0,0.0344,0.039,0.0463,0.0551,0.0638,0.069,0.0775,0.0803,0.0831,0.0833,0.0817,0.0696,0.046,0.0349,0.0189,0.0116,-0.0101,-0.008,-0.017,-0.0305,-0.0302,-0.0256,0,0,0,0,0,0,0.0366,0.0431,0.0464,0.0584,0.065,0.0753,0.0811,0.0833,0.0831,0.083,0.0706,0.0649,0.0414,0.0554,0.0184,0.0133,0.0052,-0.0192,-0.0196,-0.0306,-0.0304,-0.0302,-0.0253,0,0,0,0,0]}]]